{"data":{"norad_id":43159,"epoch":"2026-09-20T04:15:32.449824Z","epoch_age_seconds":79441,"freshness":"FRESH","line1":"1 43159U 18008E   26263.17745891  .00005769  00000+0  16620-3 0  9994","line2":"2 43159  97.1762 280.6561 0010028  79.4934 280.7439 15.36071605479570","mean_motion":15.36071605,"eccentricity":0.0010028,"inclination_deg":97.1762,"raan_deg":280.6561,"arg_perigee_deg":79.4934,"mean_anomaly_deg":280.7439,"bstar":0.0001662,"rev_number":47957,"period_min":93.745629781367,"perigee_km":450.88436719582,"apogee_km":464.59440087164,"semimajor_km":6835.8763840337,"source":"CELESTRAK","updated_at":"2026-09-20T09:00:14.303470Z"}}